TimeCST,TemperatureF,Dew PointF,Humidity,Sea Level PressureIn,VisibilityMPH,Wind Direction,Wind SpeedMPH,Gust SpeedMPH,PrecipitationIn,Events,Conditions,WindDirDegrees,DateUTC
12:00 AM,49.5,39.6,69,29.67,-9999.0,SE,10.4,-,N/A,,Unknown,140,2013-09-21 06:00:00
1:00 AM,49.3,39.4,69,29.65,-9999.0,SE,9.2,-,N/A,,Unknown,140,2013-09-21 07:00:00
2:00 AM,48.0,38.8,71,29.63,-9999.0,SE,8.1,-,N/A,,Unknown,140,2013-09-21 08:00:00
3:00 AM,46.4,38.3,73,29.62,-9999.0,SE,8.1,-,N/A,,Unknown,130,2013-09-21 09:00:00
4:00 AM,44.1,37.2,77,29.62,-9999.0,ESE,3.5,-,N/A,,Unknown,120,2013-09-21 10:00:00
5:00 AM,40.8,35.1,80,29.62,-9999.0,East,4.6,-,N/A,,Unknown,80,2013-09-21 11:00:00
6:00 AM,39,35,81,29.62,,East,9.2,,,,,100,2013-09-21 12:00:00
6:00 AM,39.2,35.2,86,29.62,-9999.0,East,9.2,-,N/A,,Unknown,100,2013-09-21 12:00:00
7:00 AM,37.8,33.4,84,29.62,-9999.0,ESE,8.1,-,N/A,,Unknown,110,2013-09-21 13:00:00
8:00 AM,41.2,36.9,85,29.61,-9999.0,ESE,4.6,-,N/A,,Unknown,120,2013-09-21 14:00:00
9:00 AM,53.4,40.3,61,29.59,-9999.0,SE,8.1,-,N/A,,Unknown,140,2013-09-21 15:00:00
10:00 AM,61.5,40.5,46,29.57,-9999.0,SE,5.8,-,N/A,,Unknown,140,2013-09-21 16:00:00
11:00 AM,67.1,38.8,35,29.55,-9999.0,South,4.6,-,N/A,,Unknown,170,2013-09-21 17:00:00
12:00 PM,73,39,18,29.54,,South,10.4,,,,,180,2013-09-21 18:00:00
12:00 PM,73.4,38.8,29,29.54,-9999.0,South,10.4,-,N/A,,Unknown,180,2013-09-21 18:00:00
1:00 PM,78.1,34.7,21,29.51,-9999.0,SSE,9.2,-,N/A,,Unknown,160,2013-09-21 19:00:00
2:00 PM,81.7,29.7,15,29.48,-9999.0,South,9.2,-,N/A,,Unknown,170,2013-09-21 20:00:00
3:00 PM,82.9,31.1,15,29.45,-9999.0,SSE,10.4,-,N/A,,Unknown,160,2013-09-21 21:00:00
4:00 PM,82.4,31.3,16,29.44,-9999.0,South,11.5,-,N/A,,Unknown,180,2013-09-21 22:00:00
5:00 PM,80.2,38.7,23,29.44,-9999.0,SSW,15.0,-,N/A,,Unknown,210,2013-09-21 23:00:00
6:00 PM,77,34,12,29.44,,SSW,13.8,,,,,200,2013-09-22 00:00:00
6:00 PM,76.8,34.0,21,29.44,-9999.0,SSW,13.8,-,N/A,,Unknown,200,2013-09-22 00:00:00
7:00 PM,71.2,36.5,28,29.45,-9999.0,SW,10.4,-,N/A,,Unknown,220,2013-09-22 01:00:00
8:00 PM,63.0,39.6,42,29.46,-9999.0,SSW,9.2,-,N/A,,Unknown,210,2013-09-22 02:00:00
9:00 PM,63.9,39.7,41,29.46,-9999.0,SW,11.5,-,N/A,,Unknown,220,2013-09-22 03:00:00
10:00 PM,59.4,40.3,49,29.47,-9999.0,SW,13.8,-,N/A,,Unknown,230,2013-09-22 04:00:00
11:00 PM,59.5,39.7,48,29.49,-9999.0,SW,12.7,-,N/A,,Unknown,220,2013-09-22 05:00:00